Zouar Airport

Jump to: basic info | weather | comments

Related pages: nearby airports | nearby navaids | notams | map

Basic information (top)

Codes: FTTR
Location: lon 20.450001, lat 16.583000, elev 2,655 ft / 809 m msl
Status: small_airport

Weather (top)

Current conditions for Faya Largeau Airport 209nm (387km) SE (rec'd 2015/04/25 09:00Z):

FTTY 250900Z 06016KT CAVOK 32/M08 Q1013

Airport forecast for Kufra Airport 436nm (807km) ENE (rec'd 2015/04/25 06:00Z):

TAF HLKF 250500Z 2506/2606 03010KT CAVOK 
      BECMG 2600/2602 VRB02KT

Latest comments (top)

No comments yet for Zouar Airport

More... (top)

See also NOTAMs and nearby airports and navaids, or visit the Zouar Airport page at the main OurAirports website..